Pampa, TX

4:23 AM CST on November 21, 2017 (GMT -0600)
Perry Lefors

Weather History for KPPA - August, 2014

Change the Weather History Date:

Sunday, August 24, 2014

  Actual Average Record
Temperature  
Mean Temperature 84 °F -  
Max Temperature 98 °F 87 °F 102 °F (2011)
Min Temperature 70 °F 63 °F 54 °F (1966)
Cooling Degree Days 19    
Growing Degree Days 34 (Base 50)    
Moisture  
Dew Point 52 °F    
Average Humidity 38    
Maximum Humidity 53    
Minimum Humidity 17    
Precipitation  
Precipitation 0.00 in - - ()
Sea Level Pressure  
Sea Level Pressure 29.96 in    
Wind  
Wind Speed 13 mph (SSW)    
Max Wind Speed 17 mph    
Max Gust Speed 30 mph    
Visibility 10 miles    
Events      
Averages and records for this station are not official NWS values.
T = Trace of Precipitation, MM = Missing Value Source: NWS Daily Summary

Daily Weather History Graph

Daily Weather History Graph

Search for Another Location

Airport or City:

Trip Planner

Search our weather history database for the weather conditions in past years. The results will help you decide how hot, cold, wet, or windy it might be!

Date:

Astronomy

Aug. 24, 2014 Rise Set
Actual Time 7:10 AM CDT 8:21 PM CDT
Civil Twilight 6:43 AM CDT 8:48 PM CDT
Nautical Twilight 6:12 AM CDT 9:19 PM CDT
Astronomical Twilight 5:39 AM CDT 9:52 PM CDT
Moon 6:22 AM CDT (8/24) 7:42 PM CDT (8/24)
Length of Visible Light 14h 04m
Length of Day
13h 11m
Waning Crescent, 1% of the Moon is Illuminated
Aug 24
Waning Crescent
Aug 25
New
Sep 2
First Quarter
Sep 8
Full
Sep 15
Last Quarter

Hourly Weather History & Observations

Time (CDT) Temp. Heat Index Dew Point Humidity Pressure Visibility Wind Dir Wind Speed Gust Speed Precip Events Conditions
12:15 AM 75.6 °F - 52.7 °F 45% 29.95 in 10.0 mi South 12.7 mph - N/A   Clear
12:35 AM 76.3 °F - 51.3 °F 41% 29.95 in 10.0 mi South 15.0 mph 20.7 mph N/A   Clear
12:55 AM 77.0 °F - 51.3 °F 40% 29.95 in 10.0 mi South 16.1 mph 23.0 mph N/A   Mostly Cloudy
1:15 AM 76.5 °F - 51.3 °F 41% 29.95 in 10.0 mi South 16.1 mph - N/A   Mostly Cloudy
1:35 AM 75.9 °F - 51.3 °F 42% 29.95 in 10.0 mi South 17.3 mph 20.7 mph N/A   Scattered Clouds
1:55 AM 75.2 °F - 51.4 °F 43% 29.95 in 10.0 mi South 16.1 mph - N/A   Scattered Clouds
2:15 AM 74.5 °F - 51.3 °F 44% 29.95 in 10.0 mi South 15.0 mph - N/A   Scattered Clouds
2:35 AM 73.6 °F - 51.4 °F 46% 29.95 in 10.0 mi South 13.8 mph - N/A   Clear
2:55 AM 73.0 °F - 51.4 °F 47% 29.94 in 10.0 mi South 13.8 mph - N/A   Scattered Clouds
3:15 AM 72.9 °F - 51.3 °F 47% 29.94 in 10.0 mi South 15.0 mph - N/A   Scattered Clouds
3:35 AM 72.5 °F - 51.3 °F 47% 29.94 in 10.0 mi South 13.8 mph - N/A   Scattered Clouds
3:55 AM 72.5 °F - 51.3 °F 47% 29.94 in 10.0 mi South 16.1 mph - N/A   Scattered Clouds
4:15 AM 72.5 °F - 51.3 °F 47% 29.95 in 10.0 mi SSW 12.7 mph - N/A   Mostly Cloudy
4:35 AM 72.5 °F - 51.4 °F 47% 29.94 in 10.0 mi SSW 11.5 mph - N/A   Mostly Cloudy
4:55 AM 72.5 °F - 51.4 °F 47% 29.94 in 10.0 mi SSW 13.8 mph - N/A   Scattered Clouds
5:15 AM 72.1 °F - 51.8 °F 49% 29.95 in 10.0 mi SSW 11.5 mph - N/A   Scattered Clouds
5:35 AM 71.2 °F - 52.0 °F 51% 29.95 in 10.0 mi SSW 11.5 mph - N/A   Scattered Clouds
5:55 AM 71.2 °F - 52.3 °F 51% 29.95 in 10.0 mi SSW 12.7 mph - N/A   Clear
6:15 AM 71.6 °F - 52.3 °F 51% 29.95 in 10.0 mi SSW 11.5 mph - N/A   Clear
6:35 AM 71.1 °F - 52.7 °F 52% 29.96 in 10.0 mi SSW 10.4 mph - N/A   Clear
6:55 AM 70.7 °F - 52.9 °F 53% 29.95 in 10.0 mi SSW 10.4 mph - N/A   Clear
7:15 AM 72.0 °F - 53.1 °F 51% 29.96 in 10.0 mi SSW 12.7 mph - N/A   Clear
7:35 AM 72.5 °F - 53.1 °F 50% 29.96 in 10.0 mi SSW 12.7 mph - N/A   Clear
7:55 AM 73.0 °F - 53.2 °F 50% 29.97 in 10.0 mi SSW 12.7 mph 18.4 mph N/A   Clear
8:15 AM 75.0 °F - 53.6 °F 47% 29.97 in 10.0 mi SSW 13.8 mph 17.3 mph N/A   Clear
8:35 AM 77.0 °F - 53.6 °F 44% 29.97 in 10.0 mi SSW 15.0 mph - N/A   Clear
8:55 AM 78.8 °F - 53.4 °F 41% 29.97 in 10.0 mi South 12.7 mph 23.0 mph N/A   Clear
9:15 AM 79.9 °F - 53.6 °F 40% 29.99 in 10.0 mi SW 16.1 mph 19.6 mph N/A   Clear
9:35 AM 80.8 °F 80.4 °F 53.8 °F 39% 29.99 in 10.0 mi WSW 16.1 mph - N/A   Clear
9:55 AM 81.9 °F 81.1 °F 54.0 °F 38% 29.99 in 10.0 mi WSW 12.7 mph - N/A   Clear
10:15 AM 83.3 °F 82.1 °F 53.4 °F 36% 29.99 in 10.0 mi WSW 11.5 mph - N/A   Clear
10:35 AM 83.7 °F 82.3 °F 53.4 °F 35% 29.99 in 10.0 mi West 9.2 mph - N/A   Clear
10:55 AM 85.1 °F 83.5 °F 53.6 °F 34% 30.00 in 10.0 mi SW 5.8 mph - N/A   Clear
11:15 AM 87.3 °F - 52.0 °F 30% 30.00 in 10.0 mi West 8.1 mph - N/A   Clear
11:35 AM 87.4 °F - 51.3 °F 29% 30.00 in 10.0 mi West 8.1 mph - N/A   Clear
11:55 AM 88.9 °F - 51.4 °F 28% 30.00 in 10.0 mi WNW 9.2 mph - N/A   Clear
12:15 PM 89.2 °F - 52.0 °F 28% 30.00 in 10.0 mi WNW 8.1 mph - N/A   Clear
12:35 PM 90.0 °F - 51.1 °F 26% 29.99 in 10.0 mi WSW 6.9 mph - N/A   Clear
12:55 PM 90.9 °F - 51.1 °F 26% 29.99 in 10.0 mi Calm Calm - N/A   Clear
1:15 PM 92.7 °F - 50.2 °F 23% 29.99 in 10.0 mi West 6.9 mph - N/A   Clear
1:35 PM 93.2 °F - 49.3 °F 22% 29.98 in 10.0 mi SW 4.6 mph - N/A   Clear
1:55 PM 93.4 °F - 48.7 °F 22% 29.98 in 10.0 mi WNW 4.6 mph - N/A   Clear
2:15 PM 95.2 °F - 47.3 °F 19% 29.97 in 10.0 mi SW 4.6 mph - N/A   Scattered Clouds
2:35 PM 97.0 °F - 46.9 °F 18% 29.96 in 10.0 mi South 5.8 mph - N/A   Scattered Clouds
2:55 PM 95.2 °F - 45.5 °F 18% 29.96 in 10.0 mi SW 12.7 mph - N/A   Mostly Cloudy
3:15 PM 94.5 °F - 45.3 °F 18% 29.95 in 10.0 mi SE 3.5 mph - N/A   Scattered Clouds
3:35 PM 96.8 °F - 45.5 °F 17% 29.95 in 10.0 mi SW 10.4 mph - N/A   Scattered Clouds
3:55 PM 98.4 °F - 46.4 °F 17% 29.93 in 10.0 mi South 5.8 mph 18.4 mph N/A   Scattered Clouds
4:15 PM 97.2 °F - 47.3 °F 18% 29.93 in 10.0 mi South 8.1 mph - N/A   Scattered Clouds
4:35 PM 98.2 °F - 48.9 °F 19% 29.93 in 10.0 mi SSE 11.5 mph 18.4 mph N/A   Clear
4:55 PM 93.7 °F - 48.6 °F 21% 29.92 in 10.0 mi South 11.5 mph - N/A   Scattered Clouds
5:15 PM 93.6 °F - 49.3 °F 22% 29.92 in 10.0 mi South 13.8 mph 21.9 mph N/A   Scattered Clouds
5:35 PM 90.0 °F - 51.8 °F 27% 29.94 in 10.0 mi SSW 17.3 mph 29.9 mph N/A   Clear
5:55 PM 89.1 °F - 51.8 °F 28% 29.94 in 10.0 mi South 17.3 mph - N/A   Clear
6:15 PM 88.3 °F - 52.3 °F 29% 29.94 in 10.0 mi South 15.0 mph - N/A   Clear
6:35 PM 88.0 °F - 52.3 °F 29% 29.94 in 10.0 mi South 12.7 mph - N/A   Clear
6:55 PM 86.9 °F 84.9 °F 53.8 °F 32% 29.94 in 10.0 mi South 15.0 mph - N/A   Clear
7:15 PM 85.1 °F 83.6 °F 54.9 °F 35% 29.93 in 10.0 mi South 16.1 mph 21.9 mph N/A   Clear
7:35 PM 84.0 °F 82.9 °F 54.9 °F 37% 29.95 in 10.0 mi South 17.3 mph 21.9 mph N/A   Clear
7:55 PM 83.8 °F 82.7 °F 54.7 °F 37% 29.95 in 10.0 mi South 11.5 mph - N/A   Clear
8:15 PM 82.9 °F 82.0 °F 54.7 °F 38% 29.95 in 10.0 mi South 12.7 mph - N/A   Clear
8:35 PM 81.7 °F 81.1 °F 54.5 °F 39% 29.95 in 10.0 mi South 13.8 mph 18.4 mph N/A   Clear
8:55 PM 80.6 °F 80.5 °F 55.8 °F 42% 29.96 in 10.0 mi South 12.7 mph 18.4 mph N/A   Clear
9:15 PM 79.7 °F - 56.5 °F 45% 29.96 in 10.0 mi South 12.7 mph - N/A   Clear
9:35 PM 78.3 °F - 56.8 °F 48% 29.96 in 10.0 mi South 10.4 mph - N/A   Clear
9:55 PM 77.9 °F - 56.7 °F 48% 29.97 in 10.0 mi South 9.2 mph - N/A   Clear
10:15 PM 77.0 °F - 56.5 °F 49% 29.98 in 10.0 mi South 10.4 mph - N/A   Clear
10:35 PM 76.1 °F - 56.5 °F 50% 29.99 in 10.0 mi South 10.4 mph - N/A   Clear
10:55 PM 76.6 °F - 56.3 °F 49% 29.99 in 10.0 mi South 13.8 mph - N/A   Clear
11:15 PM 76.1 °F - 55.8 °F 49% 30.00 in 10.0 mi SSW 13.8 mph - N/A   Clear
11:35 PM 76.5 °F - 53.6 °F 45% 30.00 in 10.0 mi South 13.8 mph - N/A   Clear
11:55 PM 76.3 °F - 54.5 °F 47% 30.00 in 10.0 mi South 13.8 mph - N/A   Clear